timestamp,wind_dir_avg,wind_spd_max_dir,wind_spd_avg,wind_spd_gust,battery_voltage,lat,long
2018-07-13 00:00:00+00:00,302.0,305.0,7.52,8.46,,47.59359,-54.27349
2018-07-13 00:10:00+00:00,350.0,349.0,14.68,17.25,,47.59359,-54.27349
2018-07-13 00:20:00+00:00,347.0,353.0,13.44,15.38,,47.59359,-54.27349
2018-07-13 00:30:00+00:00,339.0,342.0,12.34,15.25,,47.59359,-54.27349
2018-07-13 00:40:00+00:00,336.0,325.0,14.66,17.15,,47.59359,-54.27349
2018-07-13 00:50:00+00:00,323.0,324.0,13.19,16.39,,47.59359,-54.27349
2018-07-13 01:00:00+00:00,329.0,335.0,14.99,18.36,,47.59359,-54.27349
2018-07-13 01:10:00+00:00,318.0,330.0,16.52,21.41,,47.59359,-54.27349
2018-07-13 01:20:00+00:00,328.0,326.0,14.28,17.98,,47.59359,-54.27349
2018-07-13 01:30:00+00:00,327.0,329.0,16.22,18.56,,47.59359,-54.27349
2018-07-13 01:40:00+00:00,333.0,329.0,15.55,18.69,,47.59359,-54.27349
2018-07-13 01:50:00+00:00,336.0,338.0,16.99,21.11,,47.59359,-54.27349
2018-07-13 02:00:00+00:00,342.0,342.0,17.22,20.58,,47.59359,-54.27349
2018-07-13 02:10:00+00:00,331.0,328.0,15.95,18.92,,47.59359,-54.27349
2018-07-13 02:20:00+00:00,327.0,319.0,14.15,17.69,,47.59359,-54.27349
2018-07-13 02:30:00+00:00,321.0,314.0,11.33,14.35,,47.59359,-54.27349
2018-07-13 02:40:00+00:00,325.0,339.0,14.13,18.54,,47.59359,-54.27349
2018-07-13 02:50:00+00:00,322.0,323.0,14.25,17.52,,47.59359,-54.27349
2018-07-13 03:00:00+00:00,325.0,324.0,11.87,15.11,,47.59359,-54.27349
2018-07-13 03:10:00+00:00,331.0,328.0,11.65,14.01,,47.59359,-54.27349
2018-07-13 03:20:00+00:00,333.0,333.0,13.15,16.5,,47.59359,-54.27349
2018-07-13 03:30:00+00:00,331.0,330.0,12.4,13.76,,47.59359,-54.27349
2018-07-13 03:40:00+00:00,326.0,330.0,11.28,13.27,,47.59359,-54.27349
2018-07-13 03:50:00+00:00,330.0,325.0,10.68,12.42,,47.59359,-54.27349
2018-07-13 04:00:00+00:00,318.0,324.0,9.96,12.16,,47.59359,-54.27349
2018-07-13 04:10:00+00:00,316.0,321.0,9.24,11.74,,47.59359,-54.27349
2018-07-13 04:20:00+00:00,323.0,315.0,10.64,13.36,,47.59359,-54.27349
2018-07-13 04:30:00+00:00,336.0,337.0,10.89,12.71,,47.59359,-54.27349
2018-07-13 04:40:00+00:00,344.0,349.0,11.8,13.19,,47.59359,-54.27349
2018-07-13 04:50:00+00:00,339.0,345.0,10.72,12.37,,47.59359,-54.27349
2018-07-13 05:00:00+00:00,356.0,350.0,9.43,11.53,,47.59359,-54.27349
2018-07-13 05:10:00+00:00,14.0,10.0,9.28,11.8,,47.59359,-54.27349
2018-07-13 05:20:00+00:00,6.0,351.0,7.63,10.13,,47.59359,-54.27349
2018-07-13 05:30:00+00:00,302.0,298.0,3.77,5.18,,47.59359,-54.27349
2018-07-13 05:40:00+00:00,305.0,301.0,4.69,6.29,,47.59359,-54.27349
2018-07-13 05:50:00+00:00,299.0,286.0,5.27,7.13,,47.59359,-54.27349
2018-07-13 06:00:00+00:00,318.0,326.0,6.26,7.67,,47.59359,-54.27349
2018-07-13 06:10:00+00:00,314.0,311.0,5.42,5.9,,47.59359,-54.27349
2018-07-13 06:20:00+00:00,337.0,331.0,8.2,9.37,,47.59359,-54.27349
2018-07-13 06:30:00+00:00,341.0,345.0,7.79,8.78,,47.59359,-54.27349
2018-07-13 06:40:00+00:00,339.0,338.0,7.16,8.72,,47.59359,-54.27349
2018-07-13 06:50:00+00:00,342.0,341.0,4.25,5.16,,47.59359,-54.27349
2018-07-13 07:00:00+00:00,349.0,345.0,4.32,5.42,,47.59359,-54.27349
2018-07-13 07:10:00+00:00,338.0,334.0,4.82,5.7,,47.59359,-54.27349
2018-07-13 07:20:00+00:00,311.0,300.0,2.86,3.68,,47.59359,-54.27349
2018-07-13 07:30:00+00:00,327.0,324.0,4.99,5.68,,47.59359,-54.27349
2018-07-13 07:40:00+00:00,328.0,329.0,4.56,5.11,,47.59359,-54.27349
2018-07-13 07:50:00+00:00,344.0,339.0,4.51,4.99,,47.59359,-54.27349
2018-07-13 08:00:00+00:00,157.0,164.0,0.82,1.42,,47.59359,-54.27349
2018-07-13 08:10:00+00:00,323.0,320.0,4.21,4.78,,47.59359,-54.27349
2018-07-13 08:20:00+00:00,323.0,324.0,5.58,5.99,,47.59359,-54.27349
2018-07-13 08:30:00+00:00,346.0,355.0,8.1,9.35,,47.59359,-54.27349
2018-07-13 08:40:00+00:00,357.0,357.0,7.78,8.96,,47.59359,-54.27349
2018-07-13 08:50:00+00:00,10.0,2.0,5.21,6.57,,47.59359,-54.27349
2018-07-13 09:00:00+00:00,351.0,359.0,3.82,4.68,,47.59359,-54.27349
2018-07-13 09:10:00+00:00,340.0,343.0,2.37,3.16,,47.59359,-54.27349
2018-07-13 09:20:00+00:00,345.0,343.0,2.47,3.23,,47.59359,-54.27349
2018-07-13 09:30:00+00:00,27.0,21.0,2.63,3.19,,47.59359,-54.27349
2018-07-13 09:40:00+00:00,41.0,37.0,2.93,3.25,,47.59359,-54.27349
2018-07-13 09:50:00+00:00,38.0,42.0,2.96,3.22,,47.59359,-54.27349
2018-07-13 10:00:00+00:00,43.0,50.0,2.99,3.25,,47.59359,-54.27349
2018-07-13 10:10:00+00:00,213.0,216.0,2.81,3.09,,47.59359,-54.27349
2018-07-13 10:20:00+00:00,226.0,228.0,2.41,3.39,,47.59359,-54.27349
2018-07-13 10:30:00+00:00,299.0,307.0,2.41,2.88,,47.59359,-54.27349
2018-07-13 10:40:00+00:00,343.0,342.0,2.76,3.0,,47.59359,-54.27349
2018-07-13 10:50:00+00:00,346.0,347.0,1.78,1.99,,47.59359,-54.27349
2018-07-13 11:00:00+00:00,8.0,7.0,1.72,1.85,,47.59359,-54.27349
2018-07-13 11:10:00+00:00,83.0,87.0,0.26,0.51,,47.59359,-54.27349
2018-07-13 11:20:00+00:00,108.0,117.0,1.12,1.65,,47.59359,-54.27349
2018-07-13 11:30:00+00:00,173.0,173.0,2.95,3.12,,47.59359,-54.27349
2018-07-13 11:40:00+00:00,167.0,166.0,1.33,1.45,,47.59359,-54.27349
2018-07-13 11:50:00+00:00,136.0,132.0,2.55,2.8,,47.59359,-54.27349
2018-07-13 12:00:00+00:00,82.0,74.0,2.53,3.16,,47.59359,-54.27349
2018-07-13 12:10:00+00:00,84.0,86.0,3.57,3.77,,47.59359,-54.27349
2018-07-13 12:20:00+00:00,91.0,100.0,2.33,3.11,,47.59359,-54.27349
2018-07-13 12:30:00+00:00,86.0,81.0,2.42,2.86,,47.59359,-54.27349
2018-07-13 12:40:00+00:00,118.0,96.0,1.09,1.99,,47.59359,-54.27349
2018-07-13 12:50:00+00:00,137.0,140.0,1.52,1.76,,47.59359,-54.27349
2018-07-13 13:00:00+00:00,74.0,75.0,1.4,1.55,,47.59359,-54.27349
2018-07-13 13:10:00+00:00,83.0,82.0,1.58,1.81,,47.59359,-54.27349
2018-07-13 13:20:00+00:00,94.0,57.0,0.35,0.84,,47.59359,-54.27349
2018-07-13 13:30:00+00:00,33.0,34.0,0.96,1.09,,47.59359,-54.27349
2018-07-13 13:40:00+00:00,331.0,320.0,0.9,1.13,,47.59359,-54.27349
2018-07-13 13:50:00+00:00,244.0,245.0,0.33,1.03,,47.59359,-54.27349
2018-07-13 14:00:00+00:00,253.0,257.0,1.96,2.39,,47.59359,-54.27349
2018-07-13 14:10:00+00:00,264.0,263.0,2.22,2.46,,47.59359,-54.27349
2018-07-13 14:20:00+00:00,255.0,258.0,1.94,2.41,,47.59359,-54.27349
2018-07-13 14:30:00+00:00,261.0,265.0,3.55,4.01,,47.59359,-54.27349
2018-07-13 14:40:00+00:00,261.0,262.0,3.32,3.68,,47.59359,-54.27349
2018-07-13 14:50:00+00:00,258.0,258.0,2.63,2.73,,47.59359,-54.27349
2018-07-13 15:00:00+00:00,265.0,269.0,2.02,2.21,,47.59359,-54.27349
2018-07-13 15:10:00+00:00,287.0,284.0,3.12,3.26,,47.59359,-54.27349
2018-07-13 15:20:00+00:00,288.0,289.0,2.49,2.74,,47.59359,-54.27349
2018-07-13 15:30:00+00:00,241.0,237.0,2.47,2.83,,47.59359,-54.27349
2018-07-13 15:40:00+00:00,230.0,224.0,2.4,3.03,,47.59359,-54.27349
2018-07-13 15:50:00+00:00,233.0,233.0,3.51,4.06,,47.59359,-54.27349
2018-07-13 16:00:00+00:00,243.0,242.0,2.65,2.87,,47.59359,-54.27349
2018-07-13 16:10:00+00:00,230.0,230.0,4.01,4.29,,47.59359,-54.27349
2018-07-13 16:20:00+00:00,230.0,230.0,4.2,4.88,,47.59359,-54.27349
2018-07-13 16:30:00+00:00,234.0,234.0,3.16,3.46,,47.59359,-54.27349
2018-07-13 16:40:00+00:00,246.0,241.0,2.96,3.28,,47.59359,-54.27349
2018-07-13 16:50:00+00:00,244.0,243.0,3.33,3.61,,47.59359,-54.27349
2018-07-13 17:00:00+00:00,246.0,245.0,2.71,3.01,,47.59359,-54.27349
2018-07-13 17:10:00+00:00,232.0,234.0,3.15,3.3,,47.59359,-54.27349
2018-07-13 17:20:00+00:00,246.0,248.0,2.78,3.14,,47.59359,-54.27349
2018-07-13 17:30:00+00:00,235.0,234.0,4.36,4.65,,47.59359,-54.27349
2018-07-13 17:40:00+00:00,225.0,225.0,2.83,3.0,,47.59359,-54.27349
2018-07-13 17:50:00+00:00,231.0,233.0,3.78,4.14,,47.59359,-54.27349
2018-07-13 18:00:00+00:00,232.0,233.0,4.17,4.5,,47.59359,-54.27349
2018-07-13 18:10:00+00:00,231.0,232.0,4.82,5.19,,47.59359,-54.27349
2018-07-13 18:20:00+00:00,238.0,238.0,4.67,5.4,,47.59359,-54.27349
2018-07-13 18:30:00+00:00,224.0,225.0,4.96,5.25,,47.59359,-54.27349
2018-07-13 18:40:00+00:00,233.0,232.0,4.52,4.74,,47.59359,-54.27349
2018-07-13 18:50:00+00:00,235.0,231.0,4.87,5.26,,47.59359,-54.27349
2018-07-13 19:00:00+00:00,233.0,235.0,5.54,6.17,,47.59359,-54.27349
2018-07-13 19:10:00+00:00,245.0,251.0,3.55,4.19,,47.59359,-54.27349
2018-07-13 19:20:00+00:00,235.0,234.0,3.62,4.1,,47.59359,-54.27349
2018-07-13 19:30:00+00:00,248.0,250.0,3.02,3.22,,47.59359,-54.27349
2018-07-13 19:40:00+00:00,241.0,249.0,2.32,2.67,,47.59359,-54.27349
2018-07-13 19:50:00+00:00,256.0,255.0,2.68,2.87,,47.59359,-54.27349
2018-07-13 20:00:00+00:00,244.0,243.0,2.16,2.45,,47.59359,-54.27349
2018-07-13 20:10:00+00:00,247.0,243.0,2.65,2.9,,47.59359,-54.27349
2018-07-13 20:20:00+00:00,239.0,240.0,3.0,3.18,,47.59359,-54.27349
2018-07-13 20:30:00+00:00,249.0,252.0,3.06,3.31,,47.59359,-54.27349
2018-07-13 20:40:00+00:00,270.0,270.0,4.04,4.15,,47.59359,-54.27349
2018-07-13 20:50:00+00:00,242.0,223.0,4.52,6.58,,47.59359,-54.27349
2018-07-13 21:00:00+00:00,222.0,222.0,8.14,8.89,,47.59359,-54.27349
2018-07-13 21:10:00+00:00,224.0,225.0,7.79,8.63,,47.59359,-54.27349
2018-07-13 21:20:00+00:00,228.0,229.0,7.76,9.11,,47.59359,-54.27349
2018-07-13 21:30:00+00:00,225.0,227.0,8.34,8.9,,47.59359,-54.27349
2018-07-13 21:40:00+00:00,223.0,220.0,8.05,9.01,,47.59359,-54.27349
2018-07-13 21:50:00+00:00,222.0,225.0,8.49,9.37,,47.59359,-54.27349
2018-07-13 22:00:00+00:00,226.0,222.0,7.86,8.63,,47.59359,-54.27349
2018-07-13 22:10:00+00:00,231.0,231.0,8.71,9.46,,47.59359,-54.27349
2018-07-13 22:20:00+00:00,231.0,234.0,8.26,9.53,,47.59359,-54.27349
2018-07-13 22:30:00+00:00,231.0,239.0,7.48,9.18,,47.59359,-54.27349
2018-07-13 22:40:00+00:00,229.0,229.0,6.43,7.19,,47.59359,-54.27349
2018-07-13 22:50:00+00:00,231.0,231.0,6.27,6.93,,47.59359,-54.27349
2018-07-13 23:00:00+00:00,234.0,233.0,6.86,7.66,,47.59359,-54.27349
2018-07-13 23:10:00+00:00,235.0,234.0,6.84,7.44,,47.59359,-54.27349
2018-07-13 23:20:00+00:00,237.0,238.0,6.5,7.38,,47.59359,-54.27349
2018-07-13 23:30:00+00:00,246.0,242.0,5.72,6.39,,47.59359,-54.27349
2018-07-13 23:40:00+00:00,242.0,244.0,6.64,7.41,,47.59359,-54.27349
2018-07-13 23:50:00+00:00,240.0,244.0,6.44,7.41,,47.59359,-54.27349
